Location: Bletchingley
(51.2333°N, 0.1000°W)
Time: 15:31:50
(UTC+00:00)

SPOT 5 - Pass Details

Date: 18 September 2020
Orbit: 623 x 815 km, 98.3° (Epoch: 28 October)

Event Time Altitude Azimuth Distance (km) Brightness Sun altitude
Exits shadow 22:19:27 36° 297° (WNW) 1,237 4.3 -33.6°
Drops below altitude 10° 22:23:14 10° 334° (NNW) 2,392 6.4 -33.9°
Sets 22:25:46 0° 341° (NNW) 3,342 7.3 -34.1°
